• In Germany
  • List of Countries
  • For 7 days
  • Water Temperature
  • Satellite Maps
  • Weather Map
  • Weather Widgets
  • user-avatar
    Login

    Hourly Weather Graz

    Today, 31 March, Friday

    Time Temperature Precipitation Wind Pressure Humidity
    00:00 +8°C° 0 mm 0 mps 731 mmHg 95%
    01:00 +8°C° 0 mm 0 mps 730 mmHg 95%
    02:00 +8°C° 0 mm 0 mps 730 mmHg 95%
    03:00 +8°C° 0 mm 0 mps 730 mmHg 95%
    04:00 +9°C° 0 mm 1 mps 730 mmHg 96%
    05:00 +9°C° 0 mm 1 mps 730 mmHg 94%
    06:00 +10°C° 0 mm 1 mps 730 mmHg 93%
    07:00 +11°C° 0 mm 1 mps 730 mmHg 92%
    08:00 +13°C° 0 mm 1 mps 730 mmHg 84%
    09:00 +15°C° 0 mm 1 mps 729 mmHg 77%
    10:00 +16°C° 0 mm 2 mps 729 mmHg 69%
    11:00 +17°C° 0 mm 2 mps 729 mmHg 66%
    12:00 +18°C° 0 mm 2 mps 728 mmHg 63%
    13:00 +19°C° 0 mm 2 mps 728 mmHg 59%
    14:00 +18°C° 0 mm 2 mps 727 mmHg 61%
    15:00 +18°C° 0 mm 2 mps 727 mmHg 62%
    16:00 +18°C° 0 mm 2 mps 726 mmHg 63%
    17:00 +16°C° 0 mm 2 mps 726 mmHg 72%
    18:00 +14°C° 0 mm 2 mps 726 mmHg 80%
    19:00 +12°C° 0 mm 2 mps 726 mmHg 89%
    20:00 +12°C° 0 mm 1 mps 725 mmHg 91%
    21:00 +11°C° 0 mm 1 mps 725 mmHg 92%
    22:00 +10°C° 0 mm 1 mps 725 mmHg 94%
    23:00 +10°C° 0 mm 1 mps 725 mmHg 94%

    Tomorrow, 1 April, Saturday

    Time Temperature Precipitation Wind Pressure Humidity
    00:00 +9°C° 0 mm 1 mps 725 mmHg 95%
    01:00 +9°C° 0 mm 1 mps 725 mmHg 95%
    02:00 +9°C° 0 mm 1 mps 724 mmHg 95%
    03:00 +9°C° 0 mm 1 mps 724 mmHg 96%
    04:00 +8°C° 0 mm 1 mps 723 mmHg 96%
    05:00 +9°C° 0 mm 1 mps 723 mmHg 94%
    06:00 +10°C° 0 mm 1 mps 723 mmHg 92%
    07:00 +11°C° 0 mm 1 mps 723 mmHg 91%
    08:00 +13°C° 0 mm 1 mps 723 mmHg 82%
    09:00 +14°C° 0 mm 2 mps 723 mmHg 73%
    10:00 +16°C° 0 mm 2 mps 723 mmHg 64%
    11:00 +17°C° 0 mm 3 mps 723 mmHg 60%
    12:00 +18°C° 0 mm 3 mps 723 mmHg 56%
    13:00 +20°C° 0 mm 3 mps 723 mmHg 51%
    14:00 +19°C° 0 mm 4 mps 722 mmHg 51%
    15:00 +19°C° 0 mm 4 mps 722 mmHg 52%
    16:00 +19°C° 0 mm 4 mps 722 mmHg 52%
    17:00 +17°C° 0 mm 3 mps 722 mmHg 61%
    18:00 +14°C° 0 mm 3 mps 722 mmHg 71%
    19:00 +12°C° 0 mm 2 mps 722 mmHg 80%
    20:00 +12°C° 0 mm 2 mps 722 mmHg 83%
    21:00 +10°C° 0 mm 2 mps 722 mmHg 85%
    22:00 +9°C° 0 mm 2 mps 723 mmHg 87%
    23:00 +9°C° 0 mm 1 mps 723 mmHg 88%

    Day after tomorrow, 2 April, Sunday

    Time Temperature Precipitation Wind Pressure Humidity
    00:00 +9°C° 0 mm 1 mps 723 mmHg 90%
    01:00 +8°C° 0 mm 1 mps 723 mmHg 91%
    02:00 +8°C° 0 mm 1 mps 723 mmHg 91%
    03:00 +7°C° 0 mm 1 mps 723 mmHg 91%
    04:00 +7°C° 0 mm 1 mps 723 mmHg 92%
    05:00 +8°C° 0 mm 1 mps 723 mmHg 88%
    06:00 +9°C° 0 mm 1 mps 724 mmHg 84%
    07:00 +10°C° 0 mm 1 mps 724 mmHg 80%
    08:00 +13°C° 0 mm 1 mps 724 mmHg 71%
    09:00 +15°C° 0 mm 1 mps 725 mmHg 61%
    10:00 +19°C° 0 mm 1 mps 725 mmHg 52%
    11:00 +19°C° 0 mm 1 mps 725 mmHg 49%
    12:00 +20°C° 0 mm 1 mps 725 mmHg 46%
    13:00 +20°C° 0 mm 2 mps 725 mmHg 43%
    14:00 +19°C° 0 mm 2 mps 725 mmHg 45%
    15:00 +19°C° 0 mm 2 mps 724 mmHg 47%
    16:00 +19°C° 0 mm 2 mps 724 mmHg 49%
    17:00 +16°C° 0.1 mm 1 mps 724 mmHg 61%
    18:00 +13°C° 0.1 mm 1 mps 724 mmHg 73%
    19:00 +11°C° 0.1 mm 1 mps 724 mmHg 85%
    20:00 +10°C° 0.1 mm 1 mps 724 mmHg 87%
    21:00 +8°C° 0.1 mm 0 mps 725 mmHg 89%
    22:00 +8°C° 0.1 mm 0 mps 725 mmHg 91%
    23:00 +9°C° 0 mm 1 mps 725 mmHg 90%

    3 April, Monday

    Time Temperature Precipitation Wind Pressure Humidity
    00:00 +9°C° 0 mm 1 mps 725 mmHg 90%
    01:00 +10°C° 0 mm 1 mps 725 mmHg 89%
    02:00 +10°C° 0 mm 1 mps 725 mmHg 90%
    03:00 +8°C° 0 mm 2 mps 725 mmHg 90%
    04:00 +8°C° 0 mm 2 mps 725 mmHg 91%
    05:00 +9°C° 0.1 mm 2 mps 726 mmHg 90%
    06:00 +9°C° 0.1 mm 2 mps 726 mmHg 89%
    07:00 +10°C° 0.1 mm 2 mps 726 mmHg 88%
    08:00 +13°C° 0.3 mm 1 mps 727 mmHg 80%
    09:00 +15°C° 0.3 mm 1 mps 727 mmHg 73%
    10:00 +18°C° 0.3 mm 1 mps 727 mmHg 65%
    11:00 +17°C° 0.6 mm 2 mps 727 mmHg 64%
    12:00 +17°C° 0.6 mm 2 mps 727 mmHg 62%
    13:00 +18°C° 0.6 mm 2 mps 726 mmHg 61%
    14:00 +17°C° 0.9 mm 2 mps 726 mmHg 64%
    15:00 +17°C° 0.9 mm 2 mps 726 mmHg 67%
    16:00 +16°C° 0.9 mm 2 mps 726 mmHg 70%
    17:00 +14°C° 0.3 mm 2 mps 726 mmHg 77%
    18:00 +13°C° 0.3 mm 2 mps 726 mmHg 84%
    19:00 +11°C° 0.3 mm 1 mps 726 mmHg 91%
    20:00 +11°C° 0.2 mm 1 mps 726 mmHg 91%
    21:00 +9°C° 0.2 mm 2 mps 726 mmHg 91%
    22:00 +9°C° 0.2 mm 2 mps 727 mmHg 92%
    23:00 +9°C° 0.2 mm 2 mps 727 mmHg 92%

    4 April, Tuesday

    Time Temperature Precipitation Wind Pressure Humidity
    00:00 +8°C° 0.2 mm 2 mps 726 mmHg 93%
    01:00 +8°C° 0.2 mm 2 mps 726 mmHg 93%
    02:00 +7°C° 0.1 mm 2 mps 726 mmHg 94%
    03:00 +7°C° 0.1 mm 2 mps 726 mmHg 94%
    04:00 +6°C° 0.1 mm 2 mps 726 mmHg 94%
    05:00 +6°C° 0 mm 2 mps 726 mmHg 92%
    06:00 +7°C° 0 mm 2 mps 727 mmHg 89%
    07:00 +7°C° 0 mm 2 mps 727 mmHg 87%
    08:00 +8°C° 0 mm 2 mps 727 mmHg 77%
    09:00 +9°C° 0 mm 3 mps 727 mmHg 68%
    10:00 +10°C° 0 mm 3 mps 727 mmHg 58%
    11:00 +11°C° 0 mm 3 mps 727 mmHg 54%
    12:00 +12°C° 0 mm 4 mps 727 mmHg 50%
    13:00 +13°C° 0 mm 4 mps 727 mmHg 46%
    14:00 +12°C° 0 mm 4 mps 726 mmHg 47%
    15:00 +12°C° 0 mm 4 mps 726 mmHg 48%
    16:00 +12°C° 0 mm 4 mps 726 mmHg 50%
    17:00 +10°C° 0 mm 3 mps 726 mmHg 58%
    18:00 +8°C° 0 mm 3 mps 727 mmHg 66%
    19:00 +6°C° 0 mm 2 mps 727 mmHg 75%
    20:00 +6°C° 0 mm 2 mps 727 mmHg 78%
    21:00 +5°C° 0 mm 2 mps 727 mmHg 80%
    22:00 +5°C° 0 mm 2 mps 728 mmHg 83%
    23:00 +4°C° 0 mm 2 mps 728 mmHg 84%

    5 April, Wednesday

    Time Temperature Precipitation Wind Pressure Humidity
    00:00 +4°C° 0 mm 2 mps 728 mmHg 86%
    01:00 +4°C° 0 mm 2 mps 728 mmHg 87%
    02:00 +3°C° 0 mm 2 mps 728 mmHg 88%
    03:00 +3°C° 0 mm 2 mps 727 mmHg 88%
    04:00 +3°C° 0 mm 2 mps 727 mmHg 89%
    05:00 +4°C° 0 mm 2 mps 728 mmHg 85%
    06:00 +5°C° 0 mm 2 mps 728 mmHg 81%
    07:00 +5°C° 0 mm 2 mps 728 mmHg 77%
    08:00 +7°C° 0 mm 3 mps 728 mmHg 68%
    09:00 +9°C° 0 mm 3 mps 728 mmHg 60%
    10:00 +10°C° 0 mm 4 mps 728 mmHg 51%
    11:00 +11°C° 0 mm 4 mps 728 mmHg 49%
    12:00 +12°C° 0 mm 4 mps 727 mmHg 47%
    13:00 +13°C° 0 mm 4 mps 727 mmHg 45%
    14:00 +13°C° 0 mm 4 mps 726 mmHg 47%
    15:00 +13°C° 0 mm 4 mps 726 mmHg 48%
    16:00 +13°C° 0 mm 3 mps 726 mmHg 50%
    17:00 +11°C° 0 mm 3 mps 726 mmHg 59%
    18:00 +9°C° 0 mm 2 mps 726 mmHg 68%
    19:00 +8°C° 0 mm 1 mps 726 mmHg 77%
    20:00 +8°C° 0.1 mm 1 mps 726 mmHg 78%
    21:00 +7°C° 0.1 mm 1 mps 726 mmHg 80%
    22:00 +7°C° 0.1 mm 1 mps 726 mmHg 81%
    23:00 +7°C° 0.7 mm 1 mps 726 mmHg 84%
    Show more